Location: Campestrin
(46.4667°N, 11.7167°E)
Time: 17:04:44
(UTC+00:00)

Cosmos 1954 Rocket - Pass Details

Date: 18 April 2021
Orbit: 752 x 781 km, 74.0° (Epoch: 07 May)

Event Time Altitude Azimuth Distance (km) Brightness Sun altitude
Exits shadow 21:12:18 89° 266° (W) 760 3.8 -26.4°
Maximum altitude 21:12:19 89° 285° (WNW) 760 3.8 -26.4°
Drops below altitude 10° 21:17:30 10° 22° (NNE) 2,286 6.9 -26.9°
Sets 21:19:53 0° 22° (NNE) 3,216 7.7 -27.1°
